Regional Weather Roundup
Issued by NWS

Home | Current Version | Previous Version | Graphics & Text | Print | Product List | Glossary On
Versions: 1 2 3 4 5 6 7 8 9 10 11 12 13 14 15 16 17 18 19 20 21 22 23 24 25 26 27 28 29 30 31 32 33 34 35 36 37 38 39 40 41 42 43 44 45 46 47 48 49 50
000
ASUS43 KLMK 210010
RWRKY
KENTUCKY REGIONAL WEATHER ROUNDUP
NATIONAL WEATHER SERVICE LOUISVILLE KY
700 PM EST MON NOV 20 2017

NOTE "FAIR" INDICATES FEW OR NO CLOUDS BELOW 12,000 FEET
WITH NO SIGNIFICANT WEATHER AND/OR OBSTRUCTIONS TO VISIBILITY.

KYZ001>023-026-027-061>063-070>075-210100-
WESTERN AND SOUTH CENTRAL KENTUCKY

CITY           SKY/WX    TMP DP  RH WIND       PRES   REMARKS
PADUCAH        CLEAR     47  22  37 CALM      30.04S
HENDERSON      CLEAR     43  26  51 S9        30.05S
OWENSBORO      CLEAR     42  26  53 S6        30.06F
HOPKINSVILLE   CLEAR     47  22  37 SE6       30.07R
BOWLING GREEN  CLEAR     46  23  40 SW3       30.09S
GLASGOW        CLEAR     42  20  42 CALM      30.09S
$$

KYZ024-025-028>034-038-045-046-053-210100-
NORTH CENTRAL KENTUCKY

CITY           SKY/WX    TMP DP  RH WIND       PRES   REMARKS
LOUISVILLE/SDF CLOUDY    46  25  43 SE3       30.08S
LOUISVILLE/LOU CLOUDY    45  25  45 CALM      30.09S
FORT KNOX      CLEAR     42  23  47 CALM      30.07R
$$

KYZ035>037-039>044-047>052-055>060-089>105-210100-
NORTHEAST KENTUCKY

CITY           SKY/WX    TMP DP  RH WIND       PRES   REMARKS
LEXINGTON      CLOUDY    42  24  49 S7        30.08F
COVINGTON      CLOUDY    38  28  67 S8        30.07R WCI  32
FRANKFORT      CLOUDY    40  25  55 S3        30.07F
$$

KYZ054-064>069-076>088-106>120-210100-
SOUTHEAST KENTUCKY

CITY           SKY/WX    TMP DP  RH WIND       PRES   REMARKS
JACKSON        CLOUDY    44  21  40 S3        30.11S
LONDON         CLOUDY    40  26  57 S3        30.11F
SOMERSET       CLOUDY    39  27  60 S3        30.12F
MIDDLESBORO    CLOUDY    38  29  68 CALM      30.15S
MONTICELLO     CLOUDY    34  27  75 CALM      30.12F
$$




USA.gov is the U.S. government's official web portal to all federal, state and local government web resources and services.